KNIFE26 KLGB-NONE

Flight info

Callsign KNIFE26
Flight time N/A
Altitude VFR
Route VFR S
Aircraft H60/M-VGD/C

Departure

Time 2026-04-26 19:20
Airport Long Beach International Airport (KLGB)

Arrival

Time N/A
Airport NONE
Time Latitude Longitude Altitude Speed Heading
2026-04-26 19:15 33.81271 -118.16161 30 ft 0 kts 360°
2026-04-26 19:19 33.81287 -118.16153 68 ft 7 kts 120°
2026-04-26 19:19 33.81255 -118.16095 130 ft 46 kts 155°
2026-04-26 19:19 33.81022 -118.15983 656 ft 58 kts 211°
2026-04-26 19:20 33.80976 -118.15966 778 ft 62 kts 209°
2026-04-26 19:20 33.80012 -118.15609 1184 ft 166 kts 168°
2026-04-26 19:20 33.78863 -118.14954 1205 ft 186 kts 153°
2026-04-26 19:21 33.77832 -118.14118 1110 ft 171 kts 152°
2026-04-26 19:21 33.76803 -118.13387 587 ft 169 kts 154°
2026-04-26 19:21 33.75868 -118.12906 4 ft 123 kts 171°
2026-04-26 19:21 33.75502 -118.12816 210 ft 103 kts 180°
2026-04-26 19:22 33.75178 -118.12668 122 ft 9 kts 179°
2026-04-26 19:22 33.75186 -118.12687 89 ft 41 kts 182°
2026-04-26 19:22 33.75153 -118.12554 91 ft 47 kts 142°
2026-04-26 19:22 33.75066 -118.12526 37 ft 19 kts 207°
2026-04-26 19:23 33.75036 -118.12546 44 ft 23 kts 269°
2026-04-26 19:23 33.75031 -118.12573 27 ft 0 kts 272°
2026-04-26 19:23 33.75031 -118.12577 28 ft 0 kts 275°
2026-04-26 19:23 33.75030 -118.12578 45 ft 3 kts 273°
2026-04-26 19:24 33.75022 -118.12594 171 ft 9 kts 276°
2026-04-26 19:24 33.75022 -118.12662 149 ft 9 kts 43°
2026-04-26 19:24 33.75684 -118.11850 216 ft 104 kts 48°
2026-04-26 19:25 33.76222 -118.11189 203 ft 118 kts 47°
2026-04-26 19:25 33.76430 -118.10960 163 ft 123 kts 51°
2026-04-26 19:25 33.77489 -118.09630 395 ft 143 kts 50°
2026-04-26 19:25 33.78129 -118.08696 452 ft 149 kts 53°
2026-04-26 19:26 33.78786 -118.07762 534 ft 143 kts 49°
2026-04-26 19:26 33.79565 -118.06904 74 ft 172 kts 45°
2026-04-26 19:26 33.80280 -118.06225 602 ft 108 kts 326°
2026-04-26 19:26 33.80889 -118.06218 143 ft 117 kts 123°
2026-04-26 19:27 33.80906 -118.05907 283 ft 57 kts 230°
2026-04-26 19:27 33.80784 -118.06198 30 ft 0 kts 221°
2026-04-26 19:28 33.80654 -118.06304 478 ft 56 kts 216°
2026-04-26 19:28 33.80323 -118.06877 802 ft 116 kts 241°
2026-04-26 19:28 33.80340 -118.08087 301 ft 161 kts 265°
2026-04-26 19:28 33.79916 -118.08950 194 ft 156 kts 189°
2026-04-26 19:29 33.78888 -118.09298 153 ft 152 kts 204°
2026-04-26 19:29 33.77870 -118.09742 235 ft 167 kts 200°
2026-04-26 19:29 33.76611 -118.09784 121 ft 178 kts 181°
2026-04-26 19:29 33.75549 -118.10229 307 ft 141 kts 232°
2026-04-26 19:30 33.74915 -118.11053 149 ft 143 kts 227°
2026-04-26 19:30 33.74019 -118.11674 252 ft 142 kts 225°
2026-04-26 19:30 33.73790 -118.12706 89 ft 144 kts 290°
2026-04-26 19:30 33.74044 -118.12952 180 ft 155 kts 322°
2026-04-26 19:31 33.75878 -118.13077 266 ft 151 kts 353°
2026-04-26 19:31 33.76931 -118.13451 740 ft 179 kts 330°
2026-04-26 19:31 33.78100 -118.14164 761 ft 192 kts 330°
2026-04-26 19:31 33.79301 -118.14868 673 ft 186 kts 329°
2026-04-26 19:32 33.80014 -118.15208 435 ft 144 kts 338°
2026-04-26 19:32 33.80748 -118.15414 414 ft 81 kts 340°
2026-04-26 19:32 33.81092 -118.15743 294 ft 55 kts 311°
2026-04-26 19:32 33.81243 -118.16027 144 ft 11 kts 301°
2026-04-26 19:33 33.81260 -118.16045 42 ft 2 kts 301°
2026-04-26 19:33 33.81268 -118.16053 31 ft 0 kts 300°